Meteo Giornale » Osservazioni meteo Stati Uniti (USA) » Gary Reg
ore: 10:50 - Osservazioni Meteo Gary Reg
Lat. 41° 37' N Lon. 87° 25' W Alt. 180 metri s.l.m.
30 °C
Sereno
Temp. 24 Ore
24 °C
34 °C
Sud/Sud-Ovest
11.1 Km/h
Dew point 29 °C
Umidità 94 %
Visibilità 13 Km
Il sole sorge alle ore 06:16
Il sole tramonta alle ore 19:23
| Data e Ora | Cielo e Fenomeni | T °C | DP °C | Um. % | Pres. hPa | Vis. km | Vento km/h | |
|---|---|---|---|---|---|---|---|---|
| Oggi h: 10:50 | Sereno | 30 | 29 | 94 | 1015 | 13 | S/SO 11.1 | |
| Oggi h: 09:50 | Sereno | 29 | 28 | 94 | 1015 | 13 | O/SO 9.3 | |
| Oggi h: 08:50 | Sereno | 26 | 26 | 100 | 1015 | 13 | N 7.4 | |
| Oggi h: 07:50 | Poco Nuvoloso | 24 | 24 | 100 | 1015 | 11 | N 9.3 | |
| Oggi h: 06:50 | Temporale nelle vicinanze | 24 | 24 | 100 | 1015 | 11 | N 0 | |
| Oggi h: 05:50 | Temporale nelle vicinanze Pioggia | 24 | 24 | 100 | 1014 | 10 | N 9.3 | |
| Oggi h: 05:15 | Pioggia | 25 | 25 | 100 | 1014 | 11 | SO 7.4 | |
| Oggi h: 04:55 | Poco Nuvoloso | 25 | 25 | 100 | 1014 | 13 | SO 9.3 | |
| Oggi h: 04:35 | Poco Nuvoloso | 26 | 26 | 100 | 1014 | 14 | N 7.4 | |
| Oggi h: 04:15 | Nuvoloso | 26 | 26 | 100 | 1014 | 14 | N 11.1 | |
| Oggi h: 03:55 | Pioggia | 26 | 25 | 94 | 1014 | 13 | SO 11.1 | |
| Oggi h: 03:35 | Nuvoloso | 27 | 23 | 78 | 1014 | 14 | O/SO 11.1 | |
| Oggi h: 03:15 | Poco Nuvoloso | 27 | 23 | 78 | 1014 | 14 | SO 9.3 | |
| Oggi h: 02:55 | Sereno | 27 | 23 | 78 | 1013 | 14 | SO 11.1 | |
| Oggi h: 02:35 | Sereno | 27 | 23 | 78 | 1013 | 14 | N 9.3 | |
| Oggi h: 02:15 | Sereno | 27 | 23 | 78 | 1013 | 14 | SO 9.3 | |
| Oggi h: 01:55 | Sereno | 27 | 23 | 78 | 1013 | 14 | SO 13 | |
| Oggi h: 01:35 | Sereno | 27 | 23 | 78 | 1013 | 14 | SO 14.8 | |
| Oggi h: 01:15 | Sereno | 27 | 24 | 83 | 1013 | 14 | SO 11.1 | |
| Oggi h: 00:55 | Sereno | 27 | 24 | 83 | 1013 | 14 | S/SO 11.1 | |
| Oggi h: 00:35 | Sereno | 27 | 24 | 83 | 1014 | 14 | SO 11.1 | |
| Oggi h: 00:15 | Sereno | 27 | 24 | 83 | 1014 | 10 | N 11.1 | |
| Ieri h: 22:50 | Poco Nuvoloso | 28 | 27 | 94 | 1013 | 10 | N 0 | |
| Ieri h: 21:50 | Sereno | 28 | 27 | 94 | 1014 | 10 | S 9.3 | |
| Ieri h: 20:50 | Sereno | 27 | 27 | 100 | 1014 | 10 | N 0 | |
| Ieri h: 19:50 | Coperto | 27 | 27 | 100 | 1013 | 10 | SO 9.3 | |
| Ieri h: 18:50 | Pioggia | 28 | 27 | 94 | 1013 | 11 | S 13 | |
| Ieri h: 17:50 | Molto Nuvoloso | 32 | 23 | 59 | 1014 | 10 | SO 13 | |
| Ieri h: 16:50 | Sereno | 34 | 23 | 52 | 1013 | 10 | S/SO 14.8 | |
| Ieri h: 15:50 | Sereno | 33 | 22 | 52 | 1012 | 10 | S/SO 14.8 | |
| Ieri h: 14:50 | Sereno | 34 | 21 | 46 | 1013 | 10 | S/SO 22.2 | |
| Ieri h: 12:50 | Sereno | 31 | 22 | 58 | 1014 | 10 | S 18.5 | |
| Ieri h: 11:50 | Poco Nuvoloso | 29 | 23 | 70 | 1015 | 10 | S/SE 24 | |



